Vorticity
nan nan nan nan nan nan nan nan nan nan nan nan nan nan nan nan nan nan nan nan nan nan nan nan nan nan nan nan nan nan nan nan nan nan nan nan nan nan nan nan nan nan nan nan nan nan nan nan nan nan nan nan nan nan nan nan nan nan nan nan nan nan nan nan nan nan nan nan nan
nan 12 11 10 10 10 9 9 9 9 9 9 9 8 8 8 9 9 9 9 9 9 9 8 8 8 8 8 9 9 9 8 7 8 9 10 9 8 7 7 6 6 6 8 11 12 10 9 10 11 11 10 9 9 9 8 8 9 9 10 10 9 8 7 7 8 9 9 nan
nan 13 13 12 10 10 10 10 9 9 10 10 9 9 9 8 8 8 8 8 8 9 10 9 9 9 8 8 8 8 9 9 8 9 9 10 10 9 7 6 6 7 8 10 10 10 9 9 9 10 10 10 9 9 9 8 9 9 9 9 9 9 8 8 8 9 9 8 nan
nan 12 13 11 10 10 10 9 9 9 10 11 10 9 9 8 8 8 7 7 8 8 9 9 9 9 9 8 7 7 8 8 8 8 9 10 11 9 8 6 7 8 10 10 9 8 8 9 10 10 10 9 9 8 8 8 10 10 10 8 9 8 8 9 9 9 9 8 nan
nan 10 11 10 10 12 11 9 9 10 10 10 9 9 9 9 8 8 8 8 8 7 7 7 8 9 9 8 7 7 8 9 9 9 9 9 10 10 8 6 7 8 10 10 9 8 7 9 11 11 10 9 8 7 7 9 11 11 10 9 9 8 8 9 9 9 8 8 nan
nan 9 9 8 10 12 11 9 9 10 10 9 8 8 8 8 8 8 8 8 8 7 7 7 8 8 9 8 8 9 10 11 11 9 8 9 10 10 9 7 7 8 9 10 9 8 7 9 11 11 12 10 7 7 8 11 12 11 10 9 8 8 7 8 9 8 8 7 nan
nan 10 9 9 11 12 10 8 8 9 9 9 8 8 7 7 7 8 8 8 8 9 10 10 9 8 9 9 9 9 10 11 11 10 9 9 9 10 10 8 7 8 8 9 9 9 7 8 10 11 12 10 8 8 9 13 13 11 10 10 9 8 7 8 9 8 7 7 nan
nan 10 10 11 13 13 12 10 8 8 8 8 8 8 8 7 7 7 8 9 10 11 12 12 11 10 10 10 9 8 8 9 10 9 9 9 9 10 11 10 8 8 9 9 9 9 8 8 9 10 10 10 9 9 10 12 12 11 10 10 9 9 8 8 9 8 7 7 nan
nan 9 9 10 12 14 15 14 10 8 7 6 7 8 8 8 9 9 10 10 11 12 12 12 12 12 12 12 11 9 8 7 8 8 8 8 10 11 11 10 9 9 10 11 11 10 8 7 7 8 10 11 11 10 10 10 10 9 9 9 9 9 9 9 9 9 8 8 nan
nan 10 11 10 10 11 14 15 14 11 9 8 8 8 8 9 11 11 12 11 11 11 11 11 11 12 12 12 11 10 9 8 8 7 7 7 9 11 11 9 8 8 9 11 13 12 9 7 6 8 11 12 11 10 9 8 8 8 8 8 8 9 10 10 9 9 9 9 nan
nan 11 12 11 10 9 10 13 14 12 11 10 9 9 9 11 12 12 11 11 10 9 9 9 10 10 10 9 9 8 8 7 7 7 7 8 10 11 10 8 7 7 7 10 13 13 10 7 7 9 11 12 10 9 8 8 7 7 8 8 8 9 9 9 9 9 9 9 nan
nan 12 12 11 11 10 10 11 11 10 9 9 10 10 10 10 10 11 12 12 10 10 9 9 9 8 8 8 7 7 8 7 7 7 8 10 11 11 10 9 7 7 7 9 12 12 10 7 7 10 12 11 9 9 8 8 8 7 8 8 9 9 8 8 9 10 10 9 nan
nan 12 11 11 12 12 12 11 11 9 9 9 10 10 10 9 9 11 13 13 11 10 10 9 8 7 7 7 7 8 8 8 8 8 9 11 11 10 10 10 8 7 8 11 12 11 9 6 7 10 12 11 9 9 9 9 8 8 9 9 9 8 7 7 9 10 10 11 nan
nan 13 12 11 12 12 12 12 11 10 10 10 11 11 11 10 10 11 12 12 12 11 10 9 8 7 7 7 8 9 9 8 8 9 9 10 9 9 10 10 8 8 9 12 12 10 7 5 7 10 12 11 10 9 9 9 9 9 10 10 9 8 7 7 9 10 10 11 nan
nan 13 13 12 11 12 12 13 12 11 10 11 12 12 12 11 11 11 11 11 11 11 10 9 9 9 9 9 9 9 9 9 9 9 9 9 9 9 10 9 9 9 10 12 10 8 6 6 8 11 12 11 9 9 9 9 9 10 10 9 9 8 7 8 9 10 10 10 nan
nan 13 15 13 10 10 11 12 12 11 11 10 10 11 11 11 11 11 10 10 10 9 9 9 9 10 11 10 9 9 9 9 10 10 10 9 10 10 10 9 10 11 11 11 9 7 6 7 9 12 13 11 10 10 10 10 9 9 9 9 8 8 8 8 9 9 9 10 nan
nan 12 15 13 11 10 11 11 11 10 10 9 9 9 11 11 11 11 10 9 8 8 8 8 9 10 10 11 10 9 9 10 10 10 10 10 11 11 11 10 11 12 11 10 9 7 7 9 10 12 12 11 10 11 11 10 8 8 8 8 8 7 7 8 8 9 9 9 nan
nan 11 12 13 13 12 11 11 10 10 10 10 9 9 10 10 10 10 9 9 8 8 8 8 8 9 9 10 10 10 10 10 9 9 9 10 11 11 11 11 13 12 10 9 9 8 9 10 10 10 11 10 11 11 11 9 9 8 8 8 7 7 7 7 8 8 8 9 nan
nan 10 10 12 13 14 13 12 11 11 11 11 11 10 9 9 9 9 8 8 8 9 9 9 8 9 9 8 9 11 10 10 9 8 8 10 11 11 11 12 12 12 10 8 8 9 10 10 9 9 9 10 12 11 10 9 9 9 8 8 8 7 8 8 8 8 8 9 nan
nan 9 9 10 13 15 15 15 13 12 11 11 10 10 10 10 10 9 8 8 8 9 10 9 8 9 8 9 9 10 10 9 9 8 9 10 10 11 11 11 11 11 10 9 8 8 9 9 9 9 9 10 13 11 9 8 8 8 8 8 8 8 8 8 8 8 8 9 nan
nan 9 9 10 13 15 16 15 13 11 10 10 10 10 10 11 11 10 9 8 9 9 10 9 8 9 9 9 10 10 9 9 8 8 9 10 10 10 10 10 10 9 10 10 9 9 8 9 9 8 8 11 12 11 8 7 7 7 8 8 9 9 9 9 8 8 8 9 nan
nan 9 9 11 12 13 15 15 14 12 11 10 10 10 10 11 12 11 10 9 9 10 10 10 9 9 9 9 10 10 9 8 8 8 9 9 10 10 10 10 9 9 9 9 10 10 10 9 9 9 9 10 12 11 10 8 6 6 7 7 8 8 9 9 9 8 8 8 nan
nan 10 11 12 11 12 14 16 16 14 12 11 10 10 10 11 12 11 10 9 9 9 10 10 11 10 10 10 10 10 9 8 7 8 8 9 9 9 10 10 9 9 8 9 9 9 10 10 10 10 10 11 12 10 10 9 7 6 6 6 6 7 8 9 9 9 9 8 nan
nan 11 12 11 10 12 13 15 16 15 14 12 11 11 11 12 12 11 10 9 8 9 9 9 11 11 11 11 10 10 10 8 8 8 8 8 9 9 9 10 10 9 9 9 8 6 5 6 9 11 12 13 12 10 10 9 9 8 8 7 6 6 6 7 8 8 9 9 nan
nan 11 11 10 11 12 12 12 14 16 17 15 12 11 11 12 13 12 10 8 8 8 8 9 10 11 11 11 11 10 10 9 9 9 9 9 9 9 9 9 10 10 11 12 11 6 3 1 3 6 11 13 12 10 10 10 11 10 9 8 6 6 6 7 7 8 8 8 nan
nan 11 11 11 12 12 12 10 11 14 17 17 14 11 11 12 13 13 12 10 8 8 8 8 9 9 10 11 11 10 10 9 10 10 10 10 9 9 8 9 10 11 14 16 14 10 7 2 -1 1 6 11 12 11 10 10 11 12 11 10 8 8 7 7 7 8 8 8 nan
nan 10 11 12 12 12 12 10 9 11 14 17 16 14 12 12 12 13 12 11 11 10 9 8 9 10 9 10 11 10 9 9 10 10 10 10 9 9 8 8 9 11 16 18 15 12 10 5 0 -0 2 8 12 12 11 10 10 11 10 10 9 9 9 8 8 9 9 9 nan
nan 9 9 10 11 12 12 10 8 8 10 15 18 17 14 12 12 11 11 10 11 12 11 11 10 10 10 10 11 10 10 9 10 10 10 10 9 8 8 8 9 12 17 18 16 13 11 7 3 1 2 6 10 11 10 10 9 8 8 8 9 9 9 9 10 9 9 9 nan
nan 9 8 9 10 12 11 10 8 8 9 12 16 18 16 14 12 11 10 9 9 10 10 11 11 10 10 10 10 10 10 10 10 10 10 10 9 9 8 8 10 14 19 20 17 15 12 8 5 2 2 4 7 9 10 10 9 9 8 8 8 9 8 9 9 9 10 11 nan
nan 9 8 8 10 11 11 10 9 9 9 10 13 17 18 16 12 11 11 10 10 9 9 10 11 11 10 10 9 10 10 10 10 10 10 10 9 8 9 9 11 15 20 22 20 16 14 10 6 4 3 4 6 8 9 10 10 9 9 9 9 9 8 8 8 9 10 12 nan
nan 9 8 8 9 10 10 10 9 9 9 8 10 15 19 17 14 12 12 12 11 11 11 11 10 10 9 10 10 10 10 10 10 9 9 10 9 8 9 9 12 15 20 21 18 16 14 11 8 5 3 3 4 7 10 10 10 9 9 10 10 9 8 8 8 9 10 12 nan
nan 9 8 9 9 10 10 10 10 10 9 8 10 13 18 18 16 13 11 12 12 13 12 11 9 8 9 9 10 10 11 10 10 9 8 8 9 8 9 11 13 15 18 17 14 15 15 13 10 7 4 1 2 7 10 10 9 9 10 10 10 9 7 7 8 9 9 12 nan
nan 9 9 9 9 10 10 10 10 10 10 10 10 12 16 19 17 13 11 10 12 14 13 12 10 9 9 9 10 10 11 11 11 11 9 7 7 8 9 11 13 17 17 14 12 13 15 14 11 9 5 0 -1 5 9 9 9 10 10 11 11 9 8 7 8 9 9 11 nan
nan 9 9 9 10 10 10 10 10 10 11 11 11 11 14 18 17 14 11 10 10 12 13 12 11 11 10 10 10 11 11 11 11 12 11 9 8 8 8 10 14 19 18 13 11 12 14 14 12 10 7 -0 -3 3 8 10 10 11 12 12 11 9 8 8 9 10 10 12 nan
nan 9 10 10 10 10 9 9 10 10 11 11 11 11 13 17 18 16 13 11 10 11 12 12 11 11 10 10 12 11 11 11 11 12 11 9 8 9 9 10 15 20 18 13 10 11 14 15 13 10 5 -2 -2 4 9 10 11 12 13 11 9 8 7 9 9 9 9 12 nan
nan 9 10 10 11 10 10 10 10 10 10 11 11 12 12 15 18 17 15 12 11 11 11 12 11 11 9 9 10 11 11 11 11 12 12 9 7 8 9 10 15 19 18 13 10 11 14 15 13 9 1 -3 1 6 10 11 12 12 11 9 9 8 8 9 9 9 9 11 nan
nan 9 10 11 11 11 11 10 10 10 10 11 12 11 11 14 17 17 15 13 11 11 11 12 11 11 10 9 9 10 11 11 11 13 13 11 7 7 8 10 14 17 18 14 11 12 15 16 12 6 -2 -3 4 8 10 11 12 12 11 9 8 8 9 9 9 9 8 9 nan
nan 10 11 12 12 11 11 10 10 10 10 11 12 11 11 14 17 18 16 13 12 12 12 11 11 10 10 10 10 11 10 9 10 11 13 12 9 7 7 10 13 15 17 15 12 13 16 15 10 3 -4 -2 6 8 10 11 12 11 11 9 8 8 8 9 10 9 7 7 nan
nan 10 11 11 12 12 12 11 10 10 11 12 11 11 11 13 14 14 14 14 13 13 13 12 11 11 11 10 10 11 10 10 10 10 11 12 10 8 6 9 13 15 17 15 13 14 16 15 9 3 -4 -3 5 8 11 12 12 10 10 9 8 8 8 9 9 8 7 6 nan
nan 11 11 11 12 12 12 11 11 11 11 11 10 11 11 12 11 12 14 14 13 13 14 14 13 12 12 10 9 10 10 9 10 12 12 12 12 10 6 8 13 16 17 16 14 15 16 14 9 2 -6 -4 5 8 11 12 12 10 9 9 9 8 9 9 8 8 7 7 nan
nan nan nan nan nan nan nan nan nan nan nan nan nan nan nan nan nan nan nan nan nan nan nan nan nan nan nan nan nan nan nan nan nan nan nan nan nan nan nan nan nan nan nan nan nan nan nan nan nan nan nan nan nan nan nan nan nan nan nan nan nan nan nan nan nan nan nan nan nan
CAPE
nan nan nan nan nan nan nan nan nan nan nan nan nan nan nan nan nan nan nan nan nan nan nan nan nan 3 3 0 5 5 6 6 9 20 20 19 16 12 12 6 2 3 3 12 18 18 14 6 1 1 7 7 15 19 19 24 24 14 14 10 8 6 6 7 7 7 5 6 7
nan nan nan nan nan nan nan nan nan nan nan nan nan nan nan nan nan nan nan nan nan nan nan nan nan nan nan nan 0 0 2 3 7 16 16 19 18 15 15 8 3 2 2 14 21 21 14 9 4 4 9 6 13 15 15 21 20 13 13 7 6 7 7 7 6 6 6 6 5
nan nan nan nan nan nan nan nan nan nan nan nan nan nan nan nan nan nan nan nan nan nan nan nan nan nan nan nan nan nan 0 3 9 16 16 19 17 14 14 8 3 3 3 12 15 15 14 11 9 9 16 13 13 15 15 10 9 9 9 7 6 9 9 7 3 3 7 7 7
2 nan nan nan nan nan nan nan nan nan nan nan nan nan nan nan nan nan nan nan nan nan nan nan nan nan nan nan nan nan nan 2 8 16 16 18 16 12 12 10 5 7 7 10 8 8 15 15 14 14 19 12 12 16 16 14 10 8 8 7 6 10 10 8 7 7 9 10 9
5 4 4 nan nan nan nan nan nan nan nan nan nan nan nan nan nan nan nan nan nan nan nan nan nan nan nan nan nan nan nan 2 6 11 11 14 17 13 13 9 4 7 7 15 14 14 19 16 11 11 11 7 15 19 19 15 10 7 7 8 7 11 11 10 9 9 11 12 11
3 4 4 4 nan nan nan nan nan nan nan nan nan nan nan nan nan nan nan nan nan nan nan nan nan nan nan nan 0 0 nan 2 5 8 8 13 17 14 14 10 5 1 1 13 9 9 18 13 3 3 8 7 12 22 22 15 11 8 8 8 9 14 14 13 12 12 14 14 14
4 5 5 4 0 0 nan nan nan nan nan nan nan nan nan nan nan nan nan nan nan nan nan nan nan nan nan 1 1 1 0 1 2 8 8 13 17 17 17 13 5 0 0 3 6 6 15 11 1 1 5 3 14 22 22 21 9 7 7 11 12 18 18 17 16 16 15 14 15
3 8 8 9 3 3 nan nan nan nan nan nan nan nan nan nan nan nan nan nan nan nan nan nan nan nan nan 1 1 1 nan nan 1 6 6 10 15 17 17 16 8 2 2 3 6 6 12 12 0 0 2 3 12 21 21 23 8 8 8 12 15 17 17 19 17 17 15 14 15
nan 2 2 7 10 10 1 nan nan nan nan nan nan nan nan nan nan nan nan nan nan nan nan nan 2 1 1 2 1 1 0 nan nan 0 0 10 16 20 20 18 12 6 6 8 7 7 9 6 nan nan 5 6 11 25 25 21 9 13 13 14 15 13 13 16 14 14 13 14 14
1 1 1 4 6 6 14 0 nan nan nan nan nan nan nan nan nan nan nan nan nan nan nan nan 2 nan nan nan 0 0 0 nan nan nan nan 10 15 19 19 16 11 4 4 4 6 6 6 1 1 1 10 2 16 27 27 19 12 15 15 17 17 16 16 13 14 14 14 14 15
3 2 2 2 2 2 10 9 nan nan nan nan nan nan nan nan nan nan nan nan nan nan nan nan nan nan nan nan nan nan nan nan nan 1 1 11 18 19 19 15 9 3 3 2 5 5 7 1 4 4 15 2 17 23 23 16 15 17 17 20 17 16 16 16 14 14 15 15 16
3 1 1 1 2 2 8 7 1 1 nan nan nan nan nan nan nan nan nan nan nan nan nan nan nan nan nan nan nan nan nan nan nan 5 5 13 17 14 14 14 9 4 4 1 2 2 3 5 11 11 10 15 24 21 21 17 12 17 17 19 19 15 15 16 15 15 14 14 13
2 0 0 0 1 1 5 4 1 1 nan nan nan nan nan nan nan nan nan nan nan nan nan nan nan nan nan nan nan nan 0 4 6 11 11 19 8 11 11 12 8 4 4 4 2 2 3 2 13 13 15 17 23 23 23 20 16 18 18 18 15 13 13 14 15 15 13 15 12
1 nan nan nan nan nan 1 5 5 5 2 nan nan nan nan nan nan nan nan nan nan nan nan nan nan nan nan nan 0 0 10 13 14 15 15 15 1 11 11 11 9 8 8 5 4 4 1 0 8 8 17 13 24 24 24 22 19 20 20 17 13 14 14 14 13 13 12 12 13
nan nan nan nan nan nan 0 3 5 5 7 nan nan nan nan nan nan nan nan nan nan nan nan nan nan nan nan 1 10 10 15 17 16 13 13 11 5 12 12 9 6 14 14 6 5 5 nan nan nan nan 16 19 26 24 24 23 19 16 16 14 12 14 14 14 14 14 11 10 12
nan nan nan nan nan nan nan 1 4 4 6 nan nan nan nan nan nan nan nan nan nan nan nan nan nan nan nan 6 13 13 16 16 16 12 12 10 12 13 13 13 11 15 15 6 1 1 nan nan nan nan 15 13 20 21 21 22 18 13 13 14 14 13 13 13 13 13 11 11 11
nan nan nan nan nan nan nan nan 1 1 6 nan nan nan nan nan nan nan nan nan nan nan nan nan nan 3 3 6 7 7 12 13 13 10 10 9 10 12 12 15 22 12 12 5 7 7 nan 7 5 5 13 10 18 14 14 17 14 13 13 14 17 14 14 15 13 13 11 10 13
nan nan nan nan nan nan nan nan nan nan nan 0 nan nan nan nan nan nan nan nan nan 1 1 2 1 6 6 10 8 8 5 5 6 2 2 3 11 13 13 17 15 10 10 12 10 10 0 9 1 1 6 9 8 11 11 9 13 15 15 17 17 18 18 18 18 18 15 12 15
nan nan nan nan nan nan nan nan nan nan nan 0 0 1 1 0 nan nan nan nan 1 1 1 4 3 7 7 11 16 16 11 4 2 1 1 1 8 11 11 13 9 14 14 15 10 10 2 7 1 1 1 14 16 9 9 7 13 17 17 16 16 17 17 18 17 17 18 14 14
nan nan nan nan nan nan nan nan nan nan nan nan 1 3 3 2 nan nan nan nan 0 1 1 3 4 4 4 9 16 16 10 2 3 3 3 2 4 3 3 6 6 10 10 12 8 8 1 7 0 0 0 4 15 8 8 10 14 15 15 15 15 16 16 15 16 16 16 14 12
nan nan nan nan nan nan nan nan nan nan nan nan nan 2 2 3 1 nan nan nan 0 0 0 3 6 5 5 7 11 11 9 3 4 5 5 4 3 2 2 2 3 6 6 5 3 3 1 7 3 3 nan 0 6 9 9 12 15 13 13 11 11 12 12 12 14 14 14 15 14
nan nan nan nan nan nan nan nan nan nan nan nan nan 0 0 4 2 nan nan nan 0 0 0 1 5 3 3 6 9 9 6 6 5 5 5 2 4 5 5 4 3 3 3 3 4 4 3 4 7 7 3 0 3 5 5 12 13 9 9 9 9 8 8 9 10 10 11 13 12
nan nan nan nan nan nan nan nan nan nan nan nan nan nan nan 1 2 nan nan nan nan 0 0 0 3 2 2 5 7 7 5 7 6 7 7 5 5 7 7 5 6 8 8 1 4 4 5 3 7 7 10 5 3 3 3 7 8 5 5 7 10 9 9 9 10 10 9 9 8
nan nan nan nan nan nan nan nan nan nan nan nan nan nan nan nan 1 nan nan nan nan 1 1 1 1 2 2 5 7 7 5 6 7 7 7 5 4 6 6 10 11 7 7 2 4 4 6 4 3 3 10 12 5 3 3 4 4 3 3 5 12 13 13 12 12 12 8 10 8
nan nan nan nan nan nan nan nan nan nan nan nan nan nan nan nan 1 nan nan nan nan 2 2 2 1 1 1 2 5 5 4 4 7 7 7 6 3 3 3 9 11 12 12 7 9 9 13 9 3 3 6 8 4 3 3 4 4 3 3 4 9 12 12 14 11 11 8 10 7
nan nan nan nan nan nan nan nan nan nan nan nan nan nan nan nan nan nan nan nan nan 2 2 4 2 3 3 1 2 2 3 3 4 5 5 5 3 2 2 5 9 8 8 8 10 10 13 14 11 11 5 2 2 3 3 3 2 1 1 2 6 8 8 8 8 8 7 7 7
nan nan nan nan nan nan nan nan nan nan nan nan nan nan nan nan nan nan nan nan nan 0 0 3 4 8 8 1 1 1 2 2 2 4 4 5 2 0 0 3 3 3 3 9 10 10 12 14 18 18 13 2 2 2 2 1 1 1 1 3 4 5 5 3 3 3 3 4 6
nan nan nan nan nan nan nan nan nan nan nan nan nan nan nan nan nan nan nan nan nan nan nan 2 4 4 4 2 2 2 1 2 3 4 4 5 3 nan nan 1 0 2 2 11 12 12 12 14 18 18 17 5 2 1 1 0 0 1 1 3 4 4 4 2 0 0 nan nan 2
nan nan nan nan nan nan nan nan nan nan nan nan nan nan nan nan nan nan nan nan nan nan nan nan 2 1 1 1 1 1 3 2 3 4 4 6 5 1 1 2 2 5 5 13 14 14 12 14 18 18 20 11 3 1 1 nan 0 1 1 3 3 3 3 1 nan nan nan nan 1
nan nan nan nan nan nan nan nan nan nan nan nan nan nan nan nan nan nan nan nan nan nan nan nan nan 0 0 0 0 0 3 3 3 4 4 5 2 nan nan 1 3 9 9 16 16 16 14 14 18 18 20 15 4 0 0 nan 0 1 1 1 2 2 2 0 nan nan nan nan 1
nan nan nan nan nan nan nan nan nan nan nan nan nan nan nan nan nan nan nan nan nan nan nan nan nan nan nan nan nan nan 1 3 3 3 3 3 6 nan nan 0 4 14 14 19 18 18 14 13 19 19 20 20 3 nan nan 0 0 0 0 0 2 0 0 nan nan nan nan nan 0
nan nan nan nan nan nan nan nan nan nan nan nan nan nan nan nan nan nan nan nan nan nan nan nan nan nan nan nan nan nan nan 2 2 3 3 4 5 nan nan 1 6 16 16 18 16 16 15 13 18 18 21 18 4 nan nan 0 0 0 0 0 0 0 0 nan nan nan nan nan nan
nan nan nan nan nan nan nan nan nan nan nan nan nan nan nan nan nan nan nan nan nan nan nan nan nan nan nan nan nan nan nan 0 1 3 3 5 4 0 0 0 6 20 20 16 14 14 14 14 17 17 19 17 2 nan nan nan nan 0 0 0 0 nan nan nan nan nan nan nan nan
nan nan nan nan nan nan nan nan nan nan nan nan nan nan nan nan nan nan nan nan nan nan nan nan nan nan nan nan nan nan nan nan nan 1 1 3 3 0 0 0 3 19 19 14 11 11 16 15 18 18 22 16 1 nan nan nan nan nan nan nan nan nan nan nan nan nan nan nan nan
nan nan nan nan nan nan nan nan nan nan nan nan nan nan nan nan nan nan nan nan nan nan nan nan nan nan nan nan nan nan nan nan nan nan nan 1 2 1 1 0 2 17 17 11 11 11 19 18 20 20 20 11 nan nan nan nan nan nan nan nan nan nan nan nan nan nan nan nan nan
nan nan nan nan nan nan nan nan nan nan nan nan nan nan nan nan nan nan nan nan nan nan nan nan nan nan nan nan nan nan nan nan nan nan nan 0 1 0 0 1 3 15 15 11 11 11 19 20 22 22 20 3 nan nan nan nan nan nan nan nan nan nan nan nan nan nan nan nan nan
nan nan nan nan nan nan nan nan nan nan nan nan nan nan nan nan nan nan nan nan nan nan nan nan nan nan nan nan nan nan nan nan nan nan nan 0 1 0 0 0 3 13 13 11 11 11 20 21 22 22 15 nan nan nan nan nan nan nan nan nan nan nan nan nan nan nan nan nan nan
nan nan nan nan nan nan nan nan nan nan nan nan nan nan nan nan nan nan nan nan nan nan nan nan nan nan nan nan nan nan nan nan nan nan nan 0 0 nan nan nan 3 8 8 11 14 14 19 21 22 22 9 nan nan nan nan nan nan nan nan nan nan nan nan nan nan nan nan nan nan
nan nan nan nan nan nan nan nan nan nan nan nan nan nan nan nan nan nan nan nan nan nan nan nan nan nan nan nan nan nan nan nan nan nan nan nan nan nan nan nan 2 5 5 10 16 16 20 21 20 20 8 nan nan nan nan nan nan nan nan nan nan nan nan nan nan nan nan nan 0
nan nan nan nan nan nan nan nan nan nan nan nan nan nan nan nan nan nan nan nan nan nan nan nan nan nan nan nan nan nan nan nan nan nan nan nan nan 0 0 0 2 5 5 11 17 17 21 22 17 17 10 nan nan nan nan nan nan nan nan nan nan nan nan nan nan nan nan nan 2
nan nan nan nan nan nan nan nan nan nan nan nan nan nan nan nan nan nan nan nan nan nan nan nan nan nan nan nan nan nan nan nan nan nan nan nan nan 4 4 1 2 2 2 10 18 18 20 22 18 18 12 nan nan nan nan nan nan nan nan nan nan nan nan nan nan nan nan nan nan